map of RAR home
RAR - Airport
Location
City:  Avarua, Rarotonga Island, Cook Islands
Name:Rarotonga International Airport
ICAO:NCRG
IATA:RAR

Details
Type:Airport (Aerodrome, Airfield)
Use:Public/Civil, International (customs port of entry)
Latitude:21°12'10"S (-21.202738)
Longitude:159°48'20"W (-159.805555)
Datum:WGS 1984
Elevation:19 ft (6 m)
Variation:14.01°E (WMM2015v2 magnetic declination)
0.04° annual change
Runways:1
Longest:7638 × 150 ft (2328 × 45.5 m), paved

Time
Time Zone:UTC-10 (DST-9:30)

Weather
METAR:NCRG 041400Z 27007KT 9999 SCT014 BKN045 OVC090 26/24 Q1008
TAF:NCRG 041103Z 0412/0512 31007KT 9999 -SHRA FEW020 OVC100 PROB30
TEMPO 0412/0418 5000 TSRA BKN015 FEW017CB PROB30
TEMPO 0418/0506 3000 TSRA BKN015 FEW017CB

Related Locations
Nearby:
Farthest:FTTZ: 12244 mi / 19705 km
Bardaļ [Bardaļ-Zougra Airport], TI, TD

Find:

   beyond  
but within

Other Information
Maps:
NOTAMs:
Links:
Sources:

  
  • flag of Cook Islands
  

Sectional Chart

Flight Planning
at skyvector.com

Satellite Image

Google Maps Satellite view

 

Copyright © 2004-2019 Karl L. Swartz. All rights reserved.
The Great Circle Mapper name and logo are trademarks of the Great Circle Mapper.
All other trademarks mentioned herein belong to their respective owners.
Please see credits for attibutions and further copyright information.

  Follow gcmap on Facebook Follow gcmap on Twitter GCmap on LinkedIn

hCard Microformat

Geo Microformat